Date String (YYYY-MM-DD hh:mm:ss) UTC,Instrument flags,Ambient pressure (hPa),Sample flow (lpm),Bypass flow (lpm),Sample temperature (°C),Ambient temperature (°C),ASC tube jacket temperature (°C),LED temperature (°C),Box temperature (°C),Sample RH (%),Span deviation,Mass concentration (μg/m³),Mass concentration (μg/m³),Mass concentration (μg/m³)
DateTimeUTC,F1_M11,P_M11,Q1_M11,Q2_M11,T1_M11,T2_M11,T3_M11,T4_M11,T5_M11,U1_M11,ZSPAN_M11,X0_M11,X2_M11,X1_M11
2021-08-24 07:00:00,,0826.7,5.00,0.00,29.8,28.9,00.0,38.7,31.6,13.0,0000.0,0007.93,0002.24,0001.72
2021-08-24 07:01:00,,0826.8,4.99,0.00,29.8,29.0,00.0,38.8,31.6,12.0,0000.0,0007.60,0002.32,0001.78
2021-08-24 07:02:00,,0826.7,5.00,0.00,29.9,29.0,00.0,38.8,31.7,12.1,0000.0,0007.46,0002.39,0001.82
2021-08-24 07:03:00,,0826.7,5.00,0.00,29.9,29.0,00.0,38.8,31.7,13.0,0000.0,0006.91,0002.46,0001.88
2021-08-24 07:04:00,,0826.7,5.01,0.00,29.8,27.5,00.0,38.8,31.3,13.1,0000.0,0006.21,0002.52,0001.95
2021-08-24 07:05:00,,0826.7,4.99,0.00,29.7,26.4,00.0,38.8,31.0,13.1,0000.0,0006.35,0002.60,0002.02
2021-08-24 07:06:00,,0826.7,5.01,0.00,29.6,26.6,00.0,38.8,31.1,13.0,0000.0,0006.54,0002.68,0002.09
2021-08-24 07:07:00,,0826.7,5.00,0.00,29.5,27.0,00.0,38.7,31.1,13.1,0000.0,0006.33,0002.73,0002.16
2021-08-24 07:08:00,,0826.7,5.00,0.00,29.5,27.4,00.0,38.7,31.2,13.2,0000.0,0005.97,0002.74,0002.21
2021-08-24 07:09:00,,0826.7,4.99,0.00,29.5,27.7,00.0,38.7,31.2,13.3,0000.0,0005.85,0002.73,0002.23
2021-08-24 07:10:00,,0826.7,5.00,0.00,29.6,27.9,00.0,38.7,31.3,13.1,0000.0,0004.93,0002.69,0002.24
2021-08-24 07:11:00,,0826.7,5.00,0.00,29.6,28.2,00.0,38.7,31.3,12.8,0000.0,0003.98,0002.62,0002.21
2021-08-24 07:12:00,,0826.7,5.00,0.00,29.6,28.3,00.0,38.7,31.4,13.3,0000.0,0004.08,0002.66,0002.22
2021-08-24 07:13:00,,0826.7,4.98,0.00,29.6,28.5,00.0,38.7,31.4,13.4,0000.0,0004.39,0002.75,0002.27
2021-08-24 07:14:00,,0826.7,5.01,0.00,29.7,28.6,00.0,38.7,31.5,13.7,0000.0,0004.97,0002.83,0002.30
2021-08-24 07:15:00,,0826.7,5.00,0.00,29.7,28.7,00.0,38.7,31.5,13.4,0000.0,0005.76,0002.86,0002.31
2021-08-24 07:16:00,,0826.8,5.00,0.00,29.7,28.8,00.0,38.7,31.5,12.7,0000.0,0007.19,0002.93,0002.33
2021-08-24 07:17:00,,0826.7,4.99,0.00,29.8,28.8,00.0,38.8,31.6,12.5,0000.0,0007.61,0002.99,0002.33
2021-08-24 07:18:00,,0826.7,5.01,0.00,29.8,28.9,00.0,38.8,31.6,12.6,0000.0,0007.89,0003.01,0002.34
2021-08-24 07:19:00,,0826.7,4.99,0.00,29.8,29.0,00.0,38.8,31.7,12.4,0000.0,0008.12,0003.06,0002.35
2021-08-24 07:20:00,,0826.7,5.01,0.00,29.9,29.0,00.0,38.8,31.7,12.4,0000.0,0008.24,0003.11,0002.35
2021-08-24 07:21:00,,0826.7,5.00,0.00,29.9,29.0,00.0,38.8,31.7,12.5,0000.0,0008.46,0003.15,0002.34
2021-08-24 07:22:00,,0826.6,4.99,0.00,29.9,27.8,00.0,38.9,31.4,12.2,0000.0,0008.56,0003.19,0002.35
2021-08-24 07:23:00,,0826.7,5.01,0.00,29.7,26.4,00.0,38.8,31.1,12.3,0000.0,0008.48,0003.21,0002.35
2021-08-24 07:24:00,,0826.7,4.99,0.00,29.6,26.5,00.0,38.8,31.1,13.3,0000.0,0008.59,0003.19,0002.32
2021-08-24 07:25:00,,0826.7,5.00,0.00,29.6,26.9,00.0,38.8,31.1,13.2,0000.0,0009.03,0003.20,0002.30
2021-08-24 07:26:00,,0826.7,5.01,0.00,29.5,27.2,00.0,38.7,31.1,12.4,0000.0,0009.13,0003.20,0002.28
2021-08-24 07:27:00,,0826.7,4.99,0.00,29.5,27.5,00.0,38.7,31.2,11.9,0000.0,0008.39,0003.17,0002.24
2021-08-24 07:28:00,,0826.7,5.01,0.00,29.5,27.8,00.0,38.7,31.2,11.7,0000.0,0008.10,0003.14,0002.22
2021-08-24 07:29:00,,0826.7,5.01,0.00,29.5,28.0,00.0,38.7,31.3,11.5,0000.0,0007.89,0003.12,0002.21
2021-08-24 07:30:00,,0826.7,5.00,0.00,29.6,28.2,00.0,38.7,31.3,11.5,0000.0,0008.08,0003.12,0002.18
2021-08-24 07:31:00,,0826.6,4.99,0.00,29.6,28.4,00.0,38.7,31.4,11.8,0000.0,0008.10,0003.10,0002.16
2021-08-24 07:32:00,,0826.7,4.99,0.00,29.6,28.5,00.0,38.7,31.4,11.8,0000.0,0007.91,0003.02,0002.16
2021-08-24 07:33:00,,0826.7,5.00,0.00,29.7,28.6,00.0,38.7,31.4,12.1,0000.0,0007.90,0002.99,0002.16
2021-08-24 07:34:00,,0826.7,5.00,0.00,29.7,28.7,00.0,38.7,31.5,12.8,0000.0,0008.69,0002.95,0002.16
2021-08-24 07:35:00,,0826.7,5.00,0.00,29.7,28.7,00.0,38.7,31.5,12.7,0000.0,0008.74,0002.95,0002.17
2021-08-24 07:36:00,,0826.7,5.00,0.00,29.7,28.8,00.0,38.7,31.5,12.5,0000.0,0007.92,0002.91,0002.17
2021-08-24 07:37:00,,0826.7,5.00,0.00,29.8,28.8,00.0,38.8,31.6,12.7,0000.0,0007.36,0002.86,0002.20
2021-08-24 07:38:00,,0826.7,5.00,0.00,29.8,28.9,00.0,38.8,31.6,12.9,0000.0,0008.15,0002.87,0002.22
2021-08-24 07:39:00,,0826.6,5.00,0.00,29.8,28.9,00.0,38.8,31.7,12.7,0000.0,0008.04,0002.86,0002.24
2021-08-24 07:40:00,,0826.7,5.00,0.00,29.8,28.9,00.0,38.8,31.7,12.7,0000.0,0008.03,0002.89,0002.27
2021-08-24 07:41:00,,0826.7,5.00,0.00,29.9,29.0,00.0,38.8,31.7,12.7,0000.0,0007.92,0002.92,0002.32
2021-08-24 07:42:00,,0826.7,5.00,0.00,29.9,28.2,00.0,38.8,31.5,12.7,0000.0,0007.84,0002.93,0002.35
2021-08-24 07:43:00,,0826.7,5.00,0.00,29.7,26.4,00.0,38.8,31.1,12.6,0000.0,0007.85,0003.02,0002.39
2021-08-24 07:44:00,,0826.7,5.01,0.00,29.6,26.3,00.0,38.8,31.0,12.6,0000.0,0007.76,0003.03,0002.42
2021-08-24 07:45:00,,0826.7,5.00,0.00,29.5,26.7,00.0,38.7,31.0,12.9,0000.0,0006.54,0002.99,0002.43
2021-08-24 07:46:00,,0826.7,4.99,0.00,29.5,27.1,00.0,38.7,31.1,12.8,0000.0,0006.59,0003.00,0002.43
2021-08-24 07:47:00,,0826.7,5.01,0.00,29.5,27.4,00.0,38.7,31.1,12.4,0000.0,0006.54,0002.99,0002.44
2021-08-24 07:48:00,,0826.7,4.98,0.00,29.5,27.7,00.0,38.7,31.2,12.3,0000.0,0006.53,0002.99,0002.44
2021-08-24 07:49:00,,0826.7,5.00,0.00,29.5,27.9,00.0,38.7,31.2,12.0,0000.0,0005.17,0002.94,0002.43
2021-08-24 07:50:00,,0826.7,5.01,0.00,29.5,28.1,00.0,38.7,31.3,11.8,0000.0,0004.87,0002.92,0002.41
2021-08-24 07:51:00,,0826.6,4.99,0.00,29.6,28.3,00.0,38.7,31.3,11.6,0000.0,0004.74,0002.90,0002.39
2021-08-24 07:52:00,,0826.6,5.01,0.00,29.6,28.4,00.0,38.7,31.4,12.0,0000.0,0004.30,0002.87,0002.35
2021-08-24 07:53:00,,0826.7,5.00,0.00,29.6,28.5,00.0,38.7,31.4,12.2,0000.0,0004.22,0002.81,0002.31
2021-08-24 07:54:00,,0826.7,4.99,0.00,29.6,28.6,00.0,38.7,31.5,11.9,0000.0,0004.04,0002.70,0002.26
2021-08-24 07:55:00,,0826.7,5.01,0.00,29.7,28.6,00.0,38.7,31.5,11.7,0000.0,0004.19,0002.66,0002.21
2021-08-24 07:56:00,,0826.7,5.00,0.00,29.7,28.7,00.0,38.7,31.5,11.5,0000.0,0004.28,0002.66,0002.18
2021-08-24 07:57:00,,0826.7,4.99,0.00,29.7,28.7,00.0,38.7,31.5,11.5,0000.0,0003.96,0002.60,0002.15
2021-08-24 07:58:00,,0826.7,5.00,0.00,29.7,28.8,00.0,38.8,31.5,11.4,0000.0,0003.95,0002.56,0002.12
2021-08-24 07:59:00,,0826.7,5.00,0.00,29.8,28.9,00.0,38.8,31.6,11.4,0000.0,0004.69,0002.54,0002.09
